[[{"header":{"parameterUnit":"m.s-1","parameterCategory":1,"la1":30.2991,"la2":30.254,"lo1":-89.0895,"lo2":-89.0444,"dy":0.0017,"dx":0.0017,"nx":28,"ny":28,"refTime":"2025-01-14T09:00:00:Z","depth":0,"parameterNumber":2,"parameterNumberName":"U-component_of_WINDS"},"data":[0,0,0,0,0,0,0,0,0,0,0,0,0,0,0,0,0,0,0,0,0,0,0,0,0,0,0,0,0,0,0,0,0,0,0,0,0,0,0,0,0,0,0,0,0,0,0,0,0,0,0,0,0,0,0,0,0,0,-2.2684,-2.2684,0,-2.275,-2.275,-2.2751,-2.2673,-2.2671,-2.2668,-2.2665,-2.2737,-2.2742,-2.2746,0,0,0,0,0,0,0,0,0,0,0,0,0,-2.2495,-2.2499,-2.2684,-2.2684,-2.2685,-2.2749,-2.275,-2.2751,-2.2674,-2.267,-2.2667,-2.2664,-2.2736,-2.2741,-2.2747,0,0,0,0,0,0,0,0,0,0,0,0,0,-2.2571,-2.25,-2.2683,-2.2654,-2.2652,-2.2749,-2.275,-2.2752,-2.2675,-2.267,-2.2666,-2.2662,-2.2734,-2.2741,-2.2748,-2.2878,0,0,-2.2769,-2.2772,0,0,0,0,0,0,0,0,-2.2567,-2.2578,-2.2658,-2.2656,-2.2654,-2.2699,-2.271,-2.2794,-2.2676,-2.2666,-2.2665,-2.266,-2.2728,-2.2735,-2.2758,-2.2881,-2.2884,-2.2769,-2.2774,-2.2777,-2.2779,0,0,0,0,0,0,0,-2.2561,-2.2575,-2.271,-2.2659,-2.2657,-2.2639,-2.2645,-2.2726,-2.2721,-2.2667,-2.2661,-2.267,-2.2727,-2.2751,-2.2759,-2.2886,-2.2769,-2.2775,-2.278,-2.2782,-2.3121,-2.3126,0,0,0,0,0,0,-2.2559,-2.2571,-2.2708,-2.2712,-2.2599,-2.2646,-2.2653,-2.2689,-2.272,-2.272,-2.2674,-2.2666,-2.2741,-2.2751,-2.2761,-2.2917,-2.2777,-2.2783,-2.2787,-2.3116,-2.3122,-2.3127,0,0,0,0,0,0,-2.2555,-2.2572,-2.2705,-2.264,-2.2655,-2.2654,-2.2695,-2.2693,-2.2717,-2.2725,-2.2724,-2.2699,-2.2738,-2.2751,-2.2849,-2.2919,-2.2786,-2.2793,-2.3111,-2.3118,-2.3125,-2.3231,0,0,0,0,0,0,-2.255,-2.2571,-2.262,-2.2641,-2.2659,-2.2792,-2.2699,-2.2697,-2.2729,-2.2719,-2.2749,-2.275,-2.2736,-2.284,-2.2856,-2.2926,-2.2798,-2.3105,-2.3114,-2.3123,-2.3221,-2.3241,-2.3257,0,0,0,0,0,-2.2544,-2.2648,-2.2623,-2.264,-2.272,-2.2796,-2.2806,-2.2787,-2.2734,-2.2784,-2.2789,-2.2749,-2.2908,-2.285,-2.2869,-2.2941,-2.31,-2.3111,-2.3122,-2.3213,-2.3237,-2.3257,0,0,0,0,0,0,-2.2636,-2.265,-2.2622,-2.2736,-2.2765,-2.2782,-2.2845,-2.2812,-2.2858,-2.2848,-2.2823,-2.283,-2.2935,-2.2947,-2.2883,-2.307,-2.2996,-2.3011,-2.3059,-2.3081,-2.3099,-2.3096,-2.2804,0,0,0,0,0,-2.2669,-2.2728,-2.2737,-2.2837,-2.2853,-2.2846,-2.2879,-2.2861,-2.2891,-2.2903,-2.2916,-2.2948,-2.3005,-2.3043,-2.3096,-2.3221,-2.3228,-2.328,-2.3298,-2.3313,-2.3328,-2.3397,-2.3421,-2.3163,-2.3163,-2.3163,0,0,-2.2739,-2.2754,-2.2793,-2.2856,-2.2876,-2.294,-2.2857,-2.2928,-2.2976,-2.2914,-2.3008,-2.3018,-2.3052,-2.3165,-2.3216,-2.3179,-2.34,-2.3327,-2.3339,-2.3345,-2.3411,-2.3435,-2.3457,-2.317,-2.3169,-2.3168,0,0,-2.29,-2.2916,-2.3001,-2.3023,-2.3054,-2.3049,-2.307,-2.3092,-2.3096,-2.3189,-2.3145,-2.3201,-2.33,-2.3326,-2.3353,-2.3523,-2.3488,-2.354,-2.3637,-2.3705,-2.3725,-2.3743,-2.3806,-2.3829,-2.3554,-2.3554,-2.3554,0,-2.2984,-2.3077,-2.305,-2.3124,-2.3154,-2.3099,-2.3187,-2.3209,-2.3257,-2.328,-2.3237,-2.336,-2.3379,-2.3498,-2.3539,-2.3561,-2.3586,-2.3539,-2.3724,-2.3742,-2.3758,-2.3818,-2.3842,-2.3561,-2.356,-2.3559,-2.3559,0,-2.3179,-2.3244,-2.331,-2.3356,-2.3393,-2.3473,-2.346,-2.3501,-2.3479,-2.3479,-2.3576,-2.3596,-2.3653,-2.3679,-2.3659,-2.3796,-2.3773,-2.3727,-2.3653,-2.379,-2.3846,-2.3868,-2.357,-2.3568,-2.3566,-2.3564,0,0,-2.3403,-2.3432,-2.3457,-2.3478,-2.3508,-2.3559,-2.3637,-2.369,-2.3727,-2.3761,-2.3828,-2.3912,-2.387,-2.39,-2.3883,-2.3942,-2.4078,-2.3889,-2.389,-2.3926,-2.4233,-2.427,-2.4297,-2.4053,-2.4058,-2.4061,-2.4231,0,-2.3567,-2.3701,-2.3679,-2.381,-2.3871,-2.3819,-2.3887,-2.3914,-2.3916,-2.3969,-2.397,-2.4031,-2.397,-2.3988,-2.4044,-2.405,-2.414,-2.4036,-2.4118,-2.4122,-2.4115,-2.4326,-2.4364,-2.4524,-2.4253,-2.4257,-2.4259,0,-2.3776,-2.3817,-2.3954,-2.3974,-2.3999,-2.4061,-2.4109,-2.4159,-2.4189,-2.4186,-2.4219,-2.419,-2.427,-2.4192,-2.4303,-2.4233,-2.4265,-2.4273,-2.4278,-2.4288,-2.4201,-2.4344,-2.4574,-2.46,-2.4293,-2.429,-2.4288,0,-2.3929,-2.4018,-2.4112,-2.4131,-2.4157,-2.4202,-2.4215,-2.424,-2.4274,-2.4316,-2.4338,-2.4389,-2.4418,-2.4459,-2.4446,-2.439,-2.4561,-2.4481,-2.4564,-2.4564,-2.4605,-2.4604,-2.4847,-2.462,-2.462,-2.4619,-2.4619,0,-2.4116,-2.4203,-2.4181,-2.4239,-2.4335,-2.4309,-2.4405,-2.4412,-2.4434,-2.4494,-2.4451,-2.4509,-2.4486,-2.4543,-2.4533,-2.4628,-2.464,-2.4642,-2.4639,-2.4648,-2.4649,-2.4671,-2.4661,-2.4625,-2.4624,-2.4623,-2.4622,0,-2.4306,-2.4294,-2.4393,-2.4409,-2.4415,-2.4485,-2.4499,-2.4555,-2.4551,-2.4628,-2.4644,-2.4641,-2.4705,-2.4695,-2.4766,-2.4759,-2.4879,-2.4861,-2.4869,-2.4867,-2.4951,-2.4945,-2.5221,-2.5257,-2.5003,-2.5006,-2.5008,0,-2.4427,-2.4493,-2.4515,-2.4551,-2.4567,-2.4626,-2.466,-2.4636,-2.4674,-2.4712,-2.4764,-2.4823,-2.487,-2.4976,-2.4981,-2.5036,-2.502,-2.5113,-2.5029,-2.5036,-2.5026,-2.5024,-2.5031,-2.5132,-2.5134,-2.5137,-2.5139,0,-2.4646,-2.4637,-2.4686,-2.4735,-2.4776,-2.4814,-2.4847,-2.4879,-2.4859,-2.4903,-2.4968,-2.5004,-2.5076,-2.5137,-2.5188,-2.5203,-2.517,-2.5164,-2.5187,-2.5199,-2.5202,-2.5205,-2.4919,-2.5159,-2.5157,-2.5156,-2.5155,-2.5154,-2.4807,-2.4863,-2.4888,-2.4945,-2.4967,-2.4999,-2.5052,-2.5055,-2.5108,-2.5164,-2.5147,-2.5221,-2.5249,-2.5314,-2.5334,-2.5393,-2.5359,-2.5391,-2.54,-2.5409,-2.5421,-2.519,-2.5402,-2.5401,-2.54,-2.54,-2.5399,0,-2.5027,-2.5039,-2.5092,-2.5139,-2.5185,-2.5144,-2.5179,-2.5221,-2.5286,-2.5314,-2.5361,-2.5435,-2.5494,-2.5503,-2.5559,-2.5605,-2.559,-2.5621,-2.5619,-2.5624,-2.5446,-2.5423,-2.5631,-2.5631,-2.5631,-2.5631,-2.5631,-2.5631,-2.5146,-2.524,-2.5233,-2.5338,-2.535,-2.5421,-2.5444,-2.5474,-2.5497,-2.5582,-2.563,-2.5634,-2.5655,-2.5712,-2.5765,-2.5766,-2.5791,-2.5828,-2.5824,-2.5659,-2.5636,-2.5614,-2.5592,-2.5832,-2.5833,-2.5996,-2.5998,-2.5999]},{"header":{"parameterUnit":"m.s-1","parameterCategory":1,"la1":30.2991,"la2":30.254,"lo1":-89.0895,"lo2":-89.0444,"dy":0.0017,"dx":0.0017,"nx":28,"ny":28,"refTime":"2025-01-14T09:00:00:Z","depth":0,"parameterNumber":3,"parameterNumberName":"V-component_of_WINDS"},"data":[0,0,0,0,0,0,0,0,0,0,0,0,0,0,0,0,0,0,0,0,0,0,0,0,0,0,0,0,0,0,0,0,0,0,0,0,0,0,0,0,0,0,0,0,0,0,0,0,0,0,0,0,0,0,0,0,0,0,-3.1585,-3.1586,0,-3.1648,-3.1649,-3.165,-3.1612,-3.161,-3.1608,-3.1607,-3.1668,-3.1672,-3.1675,0,0,0,0,0,0,0,0,0,0,0,0,0,-3.1428,-3.1432,-3.1585,-3.1586,-3.1587,-3.1648,-3.1649,-3.165,-3.1612,-3.161,-3.1608,-3.1606,-3.1667,-3.1671,-3.1675,0,0,0,0,0,0,0,0,0,0,0,0,0,-3.1494,-3.1433,-3.1585,-3.1575,-3.1575,-3.1648,-3.1649,-3.165,-3.1613,-3.161,-3.1607,-3.1605,-3.1666,-3.1671,-3.1676,-3.1761,0,0,-3.1691,-3.1693,0,0,0,0,0,0,0,0,-3.1491,-3.15,-3.1576,-3.1576,-3.1576,-3.1619,-3.1616,-3.1687,-3.1613,-3.1598,-3.1606,-3.1603,-3.1654,-3.166,-3.1678,-3.1763,-3.1766,-3.1691,-3.1694,-3.1697,-3.1698,0,0,0,0,0,0,0,-3.1486,-3.1497,-3.161,-3.1577,-3.1577,-3.1567,-3.1573,-3.163,-3.164,-3.1599,-3.1597,-3.1605,-3.1653,-3.1673,-3.1679,-3.1767,-3.1691,-3.1696,-3.1699,-3.1701,-3.1925,-3.1928,0,0,0,0,0,0,-3.1483,-3.1494,-3.1608,-3.1612,-3.1526,-3.1572,-3.1579,-3.1608,-3.164,-3.1642,-3.1607,-3.1603,-3.1666,-3.1673,-3.1681,-3.1782,-3.1696,-3.1701,-3.1704,-3.1922,-3.1926,-3.1929,0,0,0,0,0,0,-3.148,-3.1493,-3.1605,-3.1552,-3.1566,-3.1577,-3.1611,-3.1611,-3.163,-3.1646,-3.1647,-3.1625,-3.1664,-3.1674,-3.1741,-3.1783,-3.1703,-3.1708,-3.1919,-3.1923,-3.1927,-3.1985,0,0,0,0,0,0,-3.1475,-3.1492,-3.1526,-3.1553,-3.1569,-3.1666,-3.1613,-3.1614,-3.1639,-3.1634,-3.1663,-3.1665,-3.1662,-3.1734,-3.1746,-3.1789,-3.1712,-3.1915,-3.1921,-3.1926,-3.198,-3.1991,-3.2001,0,0,0,0,0,-3.147,-3.1539,-3.1528,-3.1542,-3.1611,-3.1668,-3.1677,-3.1674,-3.1643,-3.1676,-3.1686,-3.1664,-3.1777,-3.1741,-3.1754,-3.1799,-3.1912,-3.1919,-3.1925,-3.1975,-3.1989,-3.2001,0,0,0,0,0,0,-3.1515,-3.1542,-3.153,-3.1611,-3.1638,-3.1662,-3.1704,-3.1689,-3.1724,-3.1718,-3.1711,-3.1718,-3.1788,-3.18,-3.176,-3.1883,-3.1839,-3.1849,-3.1872,-3.1886,-3.1896,-3.1892,-3.1716,0,0,0,0,0,-3.1535,-3.1581,-3.1601,-3.167,-3.1685,-3.1692,-3.1717,-3.1712,-3.1739,-3.175,-3.1765,-3.1791,-3.1832,-3.186,-3.1899,-3.1981,-3.1986,-3.2018,-3.2029,-3.2038,-3.2046,-3.209,-3.2104,-3.1951,-3.1951,-3.1951,0,0,-3.1575,-3.1596,-3.1625,-3.168,-3.17,-3.1747,-3.1702,-3.1753,-3.1787,-3.1757,-3.1822,-3.1834,-3.1863,-3.1938,-3.1972,-3.195,-3.209,-3.2046,-3.2053,-3.2057,-3.2098,-3.2113,-3.2126,-3.1955,-3.1954,-3.1954,0,0,-3.1673,-3.1694,-3.1753,-3.1774,-3.1806,-3.181,-3.1825,-3.1851,-3.1858,-3.1923,-3.1902,-3.1942,-3.2013,-3.2035,-3.2055,-3.216,-3.2142,-3.2173,-3.2229,-3.2272,-3.2284,-3.2294,-3.2332,-3.2345,-3.2181,-3.2181,-3.2182,0,-3.1719,-3.179,-3.1785,-3.1838,-3.1862,-3.1839,-3.1898,-3.1919,-3.1961,-3.1978,-3.1954,-3.2043,-3.206,-3.214,-3.2166,-3.2183,-3.2198,-3.217,-3.2283,-3.2293,-3.2303,-3.2339,-3.2353,-3.2185,-3.2185,-3.2184,-3.2184,0,-3.1844,-3.1893,-3.1937,-3.198,-3.2009,-3.2065,-3.2068,-3.2098,-3.209,-3.2097,-3.2163,-3.2183,-3.2226,-3.2244,-3.2237,-3.2322,-3.2308,-3.2284,-3.224,-3.2322,-3.2355,-3.2368,-3.219,-3.2189,-3.2188,-3.2187,0,0,-3.1973,-3.2012,-3.2028,-3.2047,-3.208,-3.2117,-3.2172,-3.2214,-3.224,-3.2269,-3.2314,-3.2375,-3.2352,-3.2375,-3.237,-3.2407,-3.2489,-3.2378,-3.2378,-3.2398,-3.2584,-3.2603,-3.2618,-3.2477,-3.2479,-3.2481,-3.2582,0,-3.2072,-3.2169,-3.2166,-3.2255,-3.23,-3.2277,-3.2325,-3.2349,-3.2357,-3.2395,-3.2402,-3.2445,-3.2412,-3.2426,-3.2462,-3.2471,-3.2526,-3.2464,-3.2517,-3.2519,-3.2511,-3.2636,-3.2656,-3.2749,-3.2595,-3.2597,-3.2598,0,-3.2202,-3.2237,-3.2331,-3.2357,-3.2375,-3.2418,-3.2456,-3.2493,-3.252,-3.2523,-3.2548,-3.2537,-3.2591,-3.2546,-3.2619,-3.2577,-3.2598,-3.2606,-3.261,-3.2614,-3.2564,-3.2644,-3.2779,-3.2793,-3.2619,-3.2617,-3.2616,0,-3.2285,-3.2356,-3.2421,-3.2438,-3.247,-3.25,-3.2515,-3.2539,-3.2565,-3.2598,-3.2614,-3.2653,-3.2674,-3.2703,-3.2702,-3.267,-3.2777,-3.2731,-3.278,-3.278,-3.2803,-3.2802,-3.2944,-3.2817,-3.2817,-3.2817,-3.2817,0,-3.2397,-3.2455,-3.2459,-3.25,-3.2564,-3.2559,-3.2623,-3.2634,-3.2656,-3.2697,-3.2679,-3.2718,-3.2714,-3.2753,-3.2752,-3.2813,-3.2822,-3.2825,-3.2824,-3.2827,-3.2826,-3.2841,-3.2834,-3.2821,-3.282,-3.2819,-3.2818,0,-3.2502,-3.2507,-3.2576,-3.2601,-3.2609,-3.2655,-3.2675,-3.2713,-3.2719,-3.2771,-3.2783,-3.2791,-3.2836,-3.2838,-3.2888,-3.2888,-3.2962,-3.2954,-3.2953,-3.2951,-3.3,-3.2995,-3.3156,-3.3176,-3.3037,-3.3038,-3.3039,0,-3.2572,-3.2617,-3.2647,-3.2673,-3.269,-3.2733,-3.2759,-3.2756,-3.2784,-3.2818,-3.2851,-3.2894,-3.2928,-3.3,-3.3011,-3.3049,-3.3042,-3.3095,-3.3047,-3.3048,-3.3042,-3.304,-3.3044,-3.3105,-3.3106,-3.3107,-3.3108,0,-3.2697,-3.2698,-3.2737,-3.2777,-3.2809,-3.2839,-3.2868,-3.2891,-3.2891,-3.2923,-3.2968,-3.2995,-3.3047,-3.309,-3.3128,-3.3141,-3.3125,-3.3124,-3.3137,-3.314,-3.3138,-3.3139,-3.2979,-3.312,-3.3119,-3.3118,-3.3117,-3.3117,-3.2787,-3.2825,-3.2852,-3.2896,-3.2918,-3.2945,-3.2981,-3.2992,-3.303,-3.3073,-3.3069,-3.3119,-3.3144,-3.3193,-3.321,-3.3249,-3.323,-3.3249,-3.3254,-3.3259,-3.3264,-3.3132,-3.3255,-3.3255,-3.3255,-3.3255,-3.3254,0,-3.2911,-3.2927,-3.2968,-3.3009,-3.3043,-3.3025,-3.3056,-3.3085,-3.3131,-3.3156,-3.319,-3.3242,-3.3284,-3.3297,-3.3337,-3.3365,-3.3359,-3.3376,-3.3373,-3.3377,-3.3278,-3.3263,-3.338,-3.338,-3.338,-3.338,-3.338,-3.338,-3.298,-3.3043,-3.3047,-3.3121,-3.3136,-3.3186,-3.3205,-3.323,-3.325,-3.331,-3.3344,-3.3353,-3.3373,-3.3414,-3.3451,-3.3453,-3.3469,-3.3489,-3.3488,-3.3396,-3.3384,-3.3372,-3.3357,-3.3492,-3.3492,-3.3583,-3.3584,-3.3585]}]]